www.pogodaiklimat.ru

Погода и климат >> Архив погоды >> Канада >> Rankin Inlet


ПОГОДА в Rankin Inlet

  • Прогноз погоды в Rankin Inlet
  • Монитор погоды в Rankin Inlet
  • Климат города

АРХИВ ПОГОДЫ в Rankin Inlet

Время (UTC), дата Ветер
(напр.,м/с)
 
Видим.   Явления Облачность Т
(С)
Тd
(С)
f
(%)
Тe
(С)
Тes
(С)
Комфортность P
(гПа)
Po
(гПа)
Тmin
(С)
Tmax
(С)
R
(мм)
R24
(мм)
S
(см)
00 10.08 Ю 5 24 км слабый ливневой дождь 9/9 2000 м
[Sc diur, vesp]
+13.3 +9.5 78 +11 +11 1012.2 1008.1 +7.0 +19.2 0.4
03 10.08 З 4 24 км 6/0
[]
+13.3 +11.5 89 +12 +12 1011.3 1007.3
06 10.08 С 7 24 км {ливн. осадки} 1/0
[Ac trans]
+12.4 +11.3 93 +9 +9 1011.3 1007.3 +7.0 +19.2 0.2 23
12 10.08 С 7 24 км 5/4 300 м
[Sc Ci fib]
+8.5 +6.7 88 +4 +4 1013.9 1009.8 +19.2
15 10.08 С 9 24 км 10/10 300 м
[]
+8.0 +5.9 87 +3 +3 1015.0 1010.9
18 10.08 С 8 24 км 9/9 600 м
[Sc]
+10.7 +6.3 74 +7 +7 1015.8 1011.7
21 10.08 С 7 24 км 5/5 600 м
[]
+13.8 +6.8 63 +12 +12 1016.1 1012.0
00 11.08 СЗ 6 24 км 3/0
[Ac As]
+13.9 +6.1 59 +12 +12 1016.4 1012.3 +14.5
03 11.08 СЗ 5 24 км 3/0
[]
+10.6 +5.5 71 +8 +8 1017.0 1012.9
06 11.08 СЗ 5 24 км 1/0
[Ac trans]
+8.3 +6.2 87 +5 +5 1017.2 1013.1 151
09 11.08 СЗ 4 24 км 3/0
[]
+6.8 +5.1 89 +3 +3 1017.6 1013.5
12 11.08 С 2 24 км 8/3 1500 м
[Sc Ac trans Ci fib]
+9.2 +7.3 88 +7 +8 1017.9 1013.8 +6.4
15 11.08 СЗ 1 24 км 9/9 1500 м
[]
+13.1 +7.2 67 +13 +14 1017.9 1013.8
18 11.08 ЮЗ 2 24 км 9/9 1500 м
[Sc]
+14.2 +6.1 58 +14 +15 1017.7 1013.6 +6.4 +14.4
21 11.08 ЮЗ 4 24 км 9/0 2000 м
[]
+12.4 +8.1 75 +10 +13 1017.1 1013.0
00 12.08 Ю 4 16 км слабый ливневой дождь 10/6 1000 м
[Sc Ac cast]
+9.7 +8.6 93 +7 +7 1016.4 1012.3 +6.4 +15.7 0.2
03 12.08 Ю 4 24 км 10/10 1000 м
[]
+9.6 +7.4 86 +7 +7 1015.9 1011.8
06 12.08 ЮВ 3 24 км {ливн. осадки} 6/0
[Ac trans]
+8.1 +7.2 94 +5 +5 1015.6 1011.5 +6.4 +15.7 0.2 3
09 12.08 В 3 24 км 5/5 1000 м
[]
+8.2 +7.7 97 +5 +5 1016.0 1011.9
12 12.08 ЮВ 5 24 км 8/0
[Ac trans Ci fib]
+8.8 +8.2 96 +5 +6 1016.3 1012.2 +7.8 +15.7
15 12.08 ЮВ 5 24 км 5/5 50 м
[]
+10.3 +8.6 89 +7 +9 1016.5 1012.4
18 12.08 ЮВ 6 24 км 4/0
[Ci fib]
+11.8 +8.8 82 +9 +13 1017.2 1013.1 +7.8 +12.0
21 12.08 ЮВ 5 24 км 4/0
[]
+13.2 +7.3 67 +11 +14 1017.3 1013.2
00 13.08 ЮВ 4 24 км 3/0
[Ac As]
+11.1 +7.6 79 +9 +9 1016.8 1012.7 +7.8 +13.9
03 13.08 ЮВ 4 24 км 3/0
[]
+8.5 +7.3 92 +5 +5 1017.0 1012.9
06 13.08 ЮВ 3 24 км ясно +7.7 +7.0 95 +5 +5 1017.2 1013.1 +7.6 +13.9 18
09 13.08 Ю 3 24 км ясно +7.4 +6.0 91 +4 +4 1017.2 1013.1
12 13.08 ЮВ 3 24 км 1/0
[Ac trans]
+8.6 +6.5 87 +6 +7 1017.2 1013.1 +7.0 +13.9
15 13.08 Ю 6 1600 м 9/9 50 м
[]
+9.8 +8.2 90 +6 +7 1016.7 1012.6
18 13.08 Ю 5 24 км {туман} 5/0
[Ci fib]
+12.1 +8.6 79 +10 +14 1016.0 1011.9 +7.0 +12.2
21 13.08 Ю 6 24 км 4/0
[]
+12.6 +9.1 79 +10 +12 1015.5 1011.4
00 14.08 Ю 6 24 км 4/0
[Ci fib]
+11.8 +9.1 84 +9 +9 1014.7 1010.6 +7.0 +13.1
03 14.08 Ю 5 24 км 9/0
[]
+9.4 +8.2 92 +6 +6 1013.9 1009.8
06 14.08 ЮЗ 4 24 км 8/0
[Ac trans]
+9.7 +8.4 92 +7 +7 1012.8 1008.7 +7.0 +13.1 2
09 14.08 Ю 5 24 км 8/0
[]
+9.7 +8.7 93 +7 +7 1012.5 1008.4
12 14.08 Ю 4 6000 м дымка 9/0
[Ac As Ci fib]
+9.3 +8.7 96 +6 +6 1011.5 1007.4 +8.9 +13.1
15 14.08 Ю 3 8000 м 3/0
[]
+11.9 +9.9 88 +10 +14 1010.1 1006.0
18 14.08 Ю 5 24 км дымка 3/0
[Cc]
+12.6 +10.1 85 +10 +15 1009.4 1005.3 +8.9 +12.7
21 14.08 Ю 6 9000 м 3/0
[]
+12.3 +9.9 85 +10 +12 1009.1 1005.0
00 15.08 ЮЗ 6 9000 м дымка 4/0
[Cc]
+12.5 +10.6 88 +10 +10 1008.3 1004.3 +8.9 +13.1
03 15.08 ЮВ 3 9000 м 8/0
[]
+11.0 +10.2 95 +9 +9 1007.8 1003.8
06 15.08 ЮВ 5 9000 м дымка 6/0
[Ac trans Ci fib]
+8.9 +8.2 95 +5 +5 1007.6 1003.6 +8.7 +13.1 19
09 15.08 ЮВ 2 9000 м 4/0
[]
+8.6 +7.8 95 +7 +7 1007.3 1003.3
12 15.08 С 1 4800 м дымка 6/0 2000 м
[Ac As]
+8.7 +7.9 95 +9 +9 1007.3 1003.3 +8.4 +13.1
15 15.08 С 1 9000 м 4/0
[]
+10.4 +9.5 94 +11 +16 1006.9 1002.9
18 15.08 С 2 8000 м дым 1/0
[Ac As]
+15.4 +13.4 88 +16 +25 1007.0 1003.0 +8.4 +16.0
21 15.08 С 5 6000 м 10/10 1000 м
[]
+14.7 +13.6 93 +13 +13 1007.5 1003.5
00 16.08 С 3 3200 м дым 10/10 50 м
[]
+13.6 +13.1 97 +12 +12 1008.0 1004.0 +8.4 +16.0
03 16.08 В 4 1600 м 5/5 100 м
[]
+9.8 +9.0 95 +7 +7 1009.2 1005.1
06 16.08 В 3 4800 м дым 10/10 100 м
[]
+8.9 +8.3 96 +7 +7 1010.2 1006.2 +8.4 +16.0 7
09 16.08 СВ 4 6000 м 9/9 100 м
[]
+8.9 +8.2 95 +6 +6 1010.9 1006.8
12 16.08 СВ 4 8000 м дым 10/10 200 м
[Sc]
+9.2 +8.2 93 +6 +6 1011.3 1007.2 +8.9 +16.0
15 16.08 СВ 4 16 км 9/9 200 м
[]
+10.4 +8.7 89 +8 +8 1011.9 1007.8
18 16.08 СВ 2 24 км 10/10 300 м
[Sc]
+11.2 +9.2 87 +10 +10 1012.0 1007.9 +8.9 +11.2
21 16.08 В 5 24 км 10/10 300 м
[]
+10.5 +8.5 87 +7 +7 1012.3 1008.2

 

Местоположение метеостанции Rankin Inlet (Канада): широта 62.82 долгота -92.11 высота над уровнем моря 31 м.

В архиве по умолчанию представлена погода в Rankin Inlet за последнюю неделю. Архивные данные за месяц целиком и за предыдущие месяцы, начиная с января 2011 года, Вы можете получить, выбрав интересующий диапазон дат из раскрывающегося списка и нажав кнопку "Ввод!".

Внимание! Время в таблицах - всемирное. Для получения местного времени необходимо прибавить поправку, которая в Rankin Inlet равна -6 ч.

Смотрите также архив погоды в соседних городах и на ближайших метеорологических станциях:

Погода в Arviat Climate (Канада) (217 км)
Погода в Arviat (Канада) (217 км)
Погода в Arviat Airport (Канада) (218 км)
Погода в Baker Lake Climate (Канада) (255 км)
Погода в Baker Lake Airport (Канада) (256 км)
Погода в Wager Bay (Канада) (364 км)
Погода в Back River MAPS (Канада) (419 км)
Погода в Coral Harbour Arpt (Канада) (460 км)
Погода в Churchill Climate (Канада) (468 км)
Погода в Dubawnt Lake (Канада) (486 км)

Пояснения к столбцам:

Ветер - указаны скорость ветра в м/с - средняя за 10 мин, порывы в срок и между сроками (в фигурных скобках) и направление, откуда дует ветер: С - северный, СВ - северо-восточный, В - восточный, ЮВ - юго-восточный, Ю - южный, ЮЗ - юго-западный, З - западный, СЗ - северо-западный.
Видимость - горизонтальная дальность видимости в метрах или километрах. При видимости от 1 до 10 км при отсутствии осадков обычно наблюдается дымка, при ухудшении видимости до 1 км и менее - туман. В сухую погоду видимость может ухудшаться дымом, пылью или мглою.
Явления - указаны атмосферные явления, наблюдавшиеся в срок или в последний час перед сроком; фигурными скобками обозначены явления, наблюдавшиеся между сроками (за 1-3 часа до срока); квадратными скобками обозначены град или гололедные отложения с указанием их диаметра в мм.
Облачность - указаны через наклонную черту общая и нижняя облачность в баллах и высота нижней границы облаков в метрах; квадратными скобками обозначены формы облаков: Ci - перистые, Cs - перисто-слоистые, Cc - перисто-кучевые, Ac - высококучевые, As - высокослоистые, Sc - слоисто-кучевые, Ns - слоисто-дождевые, Cu - кучевые, Cb - кучево-дождевые. Подробнее классификацию облаков см. в Атласе облаков (PDF).
T - Температура воздуха - температура, измеренная на высоте 2 м над землей.
Td - Температура точки росы - температура, при понижении до которой содержащийся в воздухе водяной пар достигнет насыщения.
f - Относительная влажность воздуха - влажноcть воздуха, измеренная на высоте 2 м над землей.
Te - Эффективная температура - температура, которую ощущает одетый по сезону человек в тени. Характеристика душности погоды. При расчете учитывается влияние влажности воздуха и скорости ветра на теплоощущения человека.
Tes - Эффективная температура на солнце - температура, которую ощущает человек, с поправкой на солнечный нагрев. Характеристика знойности погоды. Зависит от высоты солнца над горизонтом, облачности и скорости ветра. Ночью, в пасмурную погоду, а также при ветре 12 м/с и более поправка равна нулю.
P - Атмосферное давление - приведенное к уровню моря атмосферное давление.
Po - Атмосферное давление - измеренное на уровне метеостанции атмосферное давление.
Tmin - Минимальная температура - минимум температуры воздуха на высоте 2 м над землей.
Tmax - Максимальная температура - максимум температуры воздуха на высоте 2 м над землей.
R - Количество осадков - Количество выпавших осадков за период времени, мм. При наведении курсора мыши на число - период времени, за который выпало указанное количество осадков.
R24 - Количество осадков - Количество выпавших осадков за 24 часа, мм.
S - Снежный покров - Высота снежного покрова, см. При наведении курсора мыши на число - состояние снежного покрова и степень покрытия местности в баллах.